Regional Weather Roundup
Issued by NWS

Home | Current Version | Previous Version | Text Only | Print | Product List | Glossary On
Versions: 1 2 3 4 5 6 7 8 9 10 11 12 13 14 15 16 17 18 19 20 21 22 23 24 25 26 27 28 29 30 31 32 33 34 35 36 37 38 39 40 41 42 43 44 45 46 47 48 49 50
000
ASUS45 KBOU 191007
RWRCO

WEATHER ROUNDUP FOR COLORADO
NATIONAL WEATHER SERVICE DENVER/BOULDER CO
400 AM MDT SUN APR 19 2015

NOTE: "FAIR" INDICATES FEW OR NO CLOUDS BELOW 12000 FEET WITH NO
SIGNIFICANT WEATHER AND/OR OBSTRUCTIONS TO VISIBILITY.

COZ001>005-013-030-031-191100-
...NORTHWEST COLORADO...

CITY           SKY/WX    TMP DP  RH WIND       PRES   REMARKS
CRAIG          CLOUDY    36  32  85 SW3       30.13R
HAYDEN         CLOUDY    34  30  86 W5        30.12R WCI  30
MEEKER         CLOUDY    35  32  88 CALM      30.13R
MOUNT WERNER   NOT AVBL
STEAMBOAT SPGS CLOUDY    32  32  99 CALM      30.12R
WALDEN         CLOUDY    30  25  80 N14       30.11S WCI  20
$$

COZ006>008-011-191100-
...WEST CENTRAL VALLEYS...

CITY           SKY/WX    TMP DP  RH WIND       PRES   REMARKS
GRAND JUNCTION FAIR      34  34 100 E7        30.10R WCI  28
MONTROSE       MOCLDY    35  33  92 CALM      30.13R
EAGLE          CLOUDY    36  34  93 W3        30.14R
RIFLE          FOG       32  31  96 CALM      30.12S VSB 1/4
DELTA          CLOUDY    37  37  99 CALM      30.13S VSB 1
NUCLA          CLEAR     36  32  87 SE8       30.14R
$$

COZ017>023-064>068-191100-
...SOUTHWEST COLORADO...

CITY           SKY/WX    TMP DP  RH WIND       PRES   REMARKS
DURANGO        PTCLDY    32  23  69 CALM      30.02R
CORTEZ         CLEAR     33  31  92 E7        30.07R WCI  27
PAGOSA SPRINGS PTCLDY    30  22  73 CALM      30.05R
TELLURIDE      PTCLDY    29  28  96 W6        30.12S WCI  23
WOLF CREEK PAS CLEAR     19  14  79 NE23      30.12R WCI   2
$$

COZ009-010-012-014-032>034-037-058>063-191100-
...CENTRAL COLORADO...

CITY           SKY/WX    TMP DP  RH WIND       PRES   REMARKS
ASPEN          CLOUDY    31  31 100 CALM      30.10R
BUENA VISTA    PTCLDY    26  18  72 E5        30.08R WCI  20
COPPER MTN     CLOUDY    23  18  80 W12       30.11S WCI  12
BERTHOUD PASS  CLOUDY    14   7  73 NW18      30.11S WCI  -3
COTTONWOOD PAS MOCLDY    32  14  47 W12       30.09R WCI  23
GUNNISON       CLEAR     27  23  86 CALM      30.12R
KREMMLING      PTCLDY    34  30  86 CALM      30.12R
LEADVILLE      CLOUDY    20  18  92 NE6       30.09R WCI  12
MONARCH PASS     N/A     18  14  86 MISG      30.21R
SALIDA         PTCLDY    30  22  72 W5        30.15S WCI  25
SUNLIGHT       MOCLDY   N/A N/A N/A NE3       30.17R
WILKERSON PASS LGT SNOW  19  18  93 NE15G22   30.10R WCI   5
$$

COZ069>075-191100-
...SAN LUIS VALLEY/SANGRE DE CRISTO MOUNTAINS...

CITY           SKY/WX    TMP DP  RH WIND       PRES   REMARKS
ALAMOSA        CLEAR     31  25  78 N8        30.04R WCI  23
LA VETA PASS   CLOUDY    27  18  69 MISG      30.06R
SAGUACHE       CLEAR     34  27  75 N10       30.06R WCI  26
$$

COZ035-036-038>040-191100-
...NORTHERN COLORADO FRONT RANGE...

CITY           SKY/WX    TMP DP  RH WIND       PRES   REMARKS
DENVER INTL AP CLOUDY    39  33  79 N21G32    30.07R
DMNS CITY PARK   N/A     40  31  68 N15G36    30.10R
AURORA         NOT AVBL
FRONT RANGE AP CLOUDY    41  34  75 N21G36    30.07R
ERIE MUNI ARPT LGT RAIN  41  34  75 N17G30    30.09R
BOULDER MUN AP DRIZZLE   39  34  81 N10       30.09R
CENTENNIAL     LGT RAIN  37  36  96 N18G36    30.08R
BROOMFIELD     CLOUDY    39  34  81 N15G29    30.10R
FORT COLLINS   CLOUDY    41  28  60 N20G28    30.11R
LONGMONT       CLOUDY    43  34  70 N9G17     30.11R
$$

COZ041-046-047-076>085-087-088-191100-
...PIKES PEAK/PALMER DIVIDE AND SOUTHERN FOOTHILLS...

CITY           SKY/WX    TMP DP  RH WIND       PRES   REMARKS
COLO. SPRINGS  LGT RAIN  37  34  89 NW17G24   30.03R
A. F. ACADEMY  MIX PCPN  34  32  93 NW25G32   30.01R WCI  21
ELLICOTT       CLOUDY   N/A N/A N/A N32G43    29.97R
FALCON         LGT SNOW  34  33  93 N23G35    30.02R WCI  22
FORT CARSON    CLOUDY    39  32  75 N32G41    30.00R
LIMON          LGT RAIN  38  36  92 N30       29.98R
MONUMENT HILL  LGT SNOW  32  32 100 N30G40    30.03R WCI  18
TRINIDAD       CLOUDY    38  33  82 W7        30.00R
$$

COZ042>045-048>051-090-091-191100-
...NORTHEAST COLORADO...

CITY           SKY/WX    TMP DP  RH WIND       PRES   REMARKS
GREELEY ARPT   CLOUDY    41  28  60 N24       30.09R
AKRON          CLOUDY    40  38  93 N28G41    29.98R
BURLINGTON     RAIN      42  40  92 NW8       29.91R FOG
WRAY           RAIN      46  46 100 N23G32    29.92R
STERLING       CLOUDY    43  37  81 N18G29    30.00R
HOLYOKE        DRIZZLE   45  41  87 N22G36    29.94R
FORT MORGAN    CLOUDY    41  32  69 N29G39    30.04R
$$

COZ086-089-092>099-191100-
...SOUTHEAST COLORADO...

CITY           SKY/WX    TMP DP  RH WIND       PRES   REMARKS
PUEBLO         CLOUDY    46  34  62 NW18      29.99R
LA JUNTA       RAIN      43  39  86 N24G38    29.94R
LAMAR          LGT RAIN  45  43  93 N16       29.84R
SPRINGFIELD      N/A     36  35  96 NW24G37   29.85S
$$


USA.gov is the U.S. government's official web portal to all federal, state and local government web resources and services.